COSMOS 2329

Satellite information

Favourite Embed

Satellite Type and Status

PAYLOADIN ORBIT

Key statistics

Satellite COSMOS 2329 at a glance.

Uptime

10843

Days in orbit

Revolutions

≈ 12.6

Per day

Orbit

LEO

Low Earth Orbit

Inclination

82.6

Latest

Satellite identification and parameters

Extended collection of information and parameters for COSMOS 2329.

Object identification

Identified? True

Debris? False

Object name: COSMOS 2329

International designator: 1996-009E

Object number (NORAD): 23791

Object ID (CCSDS): 23791

Country: COMMONWEALTH OF INDEPENDENT STATES (CIS)

Current information (Y/N): Y

RCS size: LARGE

Orbital parameters

Period: 114.132 minutes

Inclination: 82.5675 deg

SMA: 7794.081 km

Apoapsis: 1422.348 km

Periapsis: 1409.545 km

RAAN: 114.6747 deg

Eccentricy: 0.00082133

Argument of periapsis: 230.3887 deg

Mean anomaly: 248.7327 deg

Mean motion: 12.61697907 rev/day

Mean motion (dot): 0.00000035 rev/day2

B* drag term: 0.00013566453 1/REarth

Two-line elements (TLE)

Creation date: Oct. 27, 2025, 2:46 a.m.

Reference frame: TEME

Reference center: EARTH

Epoch: Oct. 26, 2025, 9:38 p.m. UTC

TLE line 0: 0 COSMOS 2329

TLE line 1: 1 23791U 96009E 25299.90182808 .00000035 00000-0 13566-3 0 9991

TLE line 2: 2 23791 82.5675 114.6747 0008213 230.3887 248.7327 12.61697907366941

Live tracking on map

Real-time ground track for satellite COSMOS 2329.

In-orbit conjunctions

A list of the most updated potential collisions computed for object COSMOS 2329.

Target Orbit TCA Probability of collision Miss distance Type
COSMOS 411 LEO 2025-10-26 09:14:55 0.0004003395 142.0 (m) PAYLOAD
SL-8 R/B LEO 2024-10-15 17:46:55 0.02383389 16.0 (m) ROCKET BODY

Associated space launch

Gonets- satellite were the civilian derivate of the military Strela-3 satellite system. The Gonets system was offered to support international health organizations to meet their global communications needs for the transfer of medical data and records to remote sites. Strela-3 was the second generation of Russian strategic store-dump military communications satellite. Development of this generation to replace the first generation Strela-1M and Strela-2M satellites began in 1973.

COSMOS 2329 was lifted into orbit during the mission ‘Tsiklon-3 | Gonets-D 319 to 321 & Strela-3 113 to 115’, on board a Tsiklon-3 space rocket.

The launch took place on Feb. 19, 1996, 12:58 a.m. from 32/1.

For more information about the launch, click the button.

Launch to space Tsiklon-3 | Gonets-D 319 to 321 & Strela-3 113 to 115
Tsiklon-3 | Gonets-D 319 to 321 & Strela-3 113 to 115

Agency: N/A

Status: Launch Successful

Launch date: Feb. 19, 1996, 12:58 a.m. UTC

Rocket: Tsiklon-3

Launch pad: 32/1

Location: Plesetsk Cosmodrome, Russian Federation

...

Latest news about this satellite

There are no fresh news available about this satellite. Check back as we update our databases every day.


Newsletter sign-up

Weekly statistics, charts and insights to help you stay on top of the space industry.